,

(GMT )
Tracadie

Weather History for CXTD - December, 2012

Change the Weather History Date:

Tuesday, December 25, 2012

  Actual Average Record
Temperature  
Mean Temperature 24 °F -  
Max Temperature 29 °F - - ()
Min Temperature 19 °F - - ()
Degree Days  
Heating Degree Days 41    
Moisture  
Dew Point 17 °F    
Average Humidity 72    
Maximum Humidity 84    
Minimum Humidity 51    
Precipitation  
Precipitation 0.00 in - - ()
Sea Level Pressure  
Sea Level Pressure 29.94 in    
Wind  
Wind Speed 10 mph ()    
Max Wind Speed 16 mph    
Max Gust Speed 23 mph    
T = Trace of Precipitation, MM = Missing Value Source: Averaged Metar Reports

Daily Weather History Graph

Daily Weather History Graph

Search for Another Location

Airport or City:

Trip Planner

Search our weather history database for the weather conditions in past years. The results will help you decide how hot, cold, wet, or windy it might be!

Date:

Astronomy

Dec. 25, 2012 Rise Set
Actual Time 7:46 AM AST 4:28 PM AST
Civil Twilight 7:11 AM AST 5:02 PM AST
Nautical Twilight 6:34 AM AST 5:40 PM AST
Astronomical Twilight 5:57 AM AST 6:16 PM AST
Moon 2:35 PM AST 5:11 AM AST
Length of Visible Light 9h 50m
Length of Day
8h 42m
Waxing Gibbous, 93% of the Moon is Illuminated
Dec 25
Waxing Gibbous
Dec 28
Full
Jan 4
Last Quarter
Jan 11
New
Jan 18
First Quarter

Hourly Weather History & Observations

Time (AST) Temp. Windchill Dew Point Humidity Pressure Visibility Wind Dir Wind Speed Gust Speed Precip Events Conditions
12:00 AM 19.9 °F 5.7 °F 10.9 °F 68% 29.85 in - WSW 16.1 mph 21.9 mph N/A   Unknown
1:00 AM 20.1 °F 8.1 °F 10.9 °F 68% 29.85 in - WSW 11.5 mph - N/A   Unknown
2:00 AM 21 °F - 14 °F 65% 29.86 in - SW 16.1 mph - -  
2:00 AM 21.2 °F 7.3 °F 14.2 °F 74% 29.86 in - SW 16.1 mph 21.9 mph N/A   Unknown
3:00 AM 21.6 °F 8.2 °F 15.8 °F 78% 29.88 in - WSW 15.0 mph 23.0 mph N/A   Unknown
4:00 AM 21.6 °F 9.3 °F 16.2 °F 80% 29.87 in - WSW 12.7 mph - N/A   Unknown
5:00 AM 22.1 °F 8.5 °F 16.7 °F 80% 29.87 in - SW 16.1 mph 21.9 mph N/A   Unknown
6:00 AM 22.6 °F 12.6 °F 16.5 °F 77% 29.90 in - WSW 9.2 mph - N/A   Unknown
7:00 AM 22.6 °F 11.3 °F 16.9 °F 79% 29.90 in - SW 11.5 mph - N/A   Unknown
8:00 AM 23 °F - 17 °F 67% 29.92 in - WSW 8.1 mph - -  
8:00 AM 23.0 °F 13.9 °F 16.5 °F 76% 29.92 in - WSW 8.1 mph - N/A   Unknown
9:00 AM 24.3 °F 14.6 °F 15.1 °F 68% 29.93 in - WSW 9.2 mph - N/A   Unknown
10:00 AM 26.1 °F 16.8 °F 14.7 °F 62% 29.95 in - West 9.2 mph - N/A   Unknown
11:00 AM 27.5 °F 18.0 °F 15.6 °F 61% 29.96 in - West 10.4 mph - N/A   Unknown
12:00 PM 27.9 °F 19.8 °F 13.1 °F 54% 29.95 in - West 8.1 mph - N/A   Unknown
1:00 PM 29.3 °F 19.6 °F 12.9 °F 51% 29.93 in - West 11.5 mph - N/A   Unknown
2:00 PM 28 °F - 17 °F 52% 29.94 in - NW 9.2 mph - -  
2:00 PM 28.4 °F 19.7 °F 17.4 °F 63% 29.94 in - NW 9.2 mph - N/A   Unknown
3:00 PM 26.4 °F 16.6 °F 19.2 °F 74% 29.96 in - NNW 10.4 mph - N/A   Unknown
4:00 PM 24.4 °F 14.9 °F 19.2 °F 81% 29.98 in - NW 9.2 mph - N/A   Unknown
5:00 PM 23.9 °F 14.2 °F 19.2 °F 82% 29.98 in - NNW 9.2 mph - N/A   Unknown
6:00 PM 22.8 °F 16.7 °F 18.1 °F 82% 30.00 in - West 4.6 mph - N/A   Unknown
7:00 PM 22.1 °F 17.4 °F 17.8 °F 83% 30.00 in - WNW 3.5 mph - N/A   Unknown
8:00 PM 25 °F - 20 °F 73% 30.02 in - NNW 8.1 mph - -  
8:00 PM 25.0 °F 16.3 °F 19.8 °F 81% 30.02 in - NNW 8.1 mph - N/A   Unknown
9:00 PM 25.5 °F 16.9 °F 20.8 °F 82% 30.02 in - North 8.1 mph - N/A   Unknown
10:00 PM 26.2 °F 20.7 °F 21.9 °F 84% 30.02 in - NNW 4.6 mph - N/A   Unknown
11:00 PM 27.3 °F 20.9 °F 22.5 °F 82% 30.03 in - NNW 5.8 mph - N/A   Unknown